Location: Detroit
(42.3310°N, 83.0460°W)
Time: 08:50:57
(UTC-04:00)

Explorer 11/Cluster Stage 4 - Pass Details

Date: 09 February 2023
Orbit: 466 x 1241 km, 28.8° (Epoch: 02 April)

Event Time Altitude Azimuth Distance (km) Brightness Sun altitude
Exits shadow 07:03:42 - 254° (WSW) 3,708 9.5 -6.7°
Reaches altitude 10° 07:06:20 10° 242° (WSW) 3,065 9.2 -6.2°
Maximum altitude 07:11:51 21° 197° (SSW) 2,417 9.1 -5.2°
Drops below altitude 10° 07:17:36 10° 152° (SSE) 3,199 10.4 -4.2°
Sets 07:21:17 0° 137° (SE) 4,145 11.4 -3.6°
